Time,TemperatureF,DewpointF,PressureIn,WindDirection,WindDirectionDegrees,WindSpeedMPH,WindSpeedGustMPH,Humidity,HourlyPrecipIn,Conditions,Clouds,dailyrainin,SolarRadiationWatts/m^2,SoftwareType,DateUTC
2013-04-15 00:03:00,63.9,54.0,30.07,SE,133,0.0,4.0,69,0.00,,,0.00,0,weatherlink.com 1.10,2013-04-15 04:03:00,
2013-04-15 00:18:00,64.0,53.0,30.05,ENE,66,0.0,1.0,67,0.00,,,0.00,0,weatherlink.com 1.10,2013-04-15 04:18:00,
2013-04-15 00:33:00,64.1,53.0,30.05,ENE,76,0.0,1.0,67,0.00,,,0.00,0,weatherlink.com 1.10,2013-04-15 04:33:00,
2013-04-15 00:48:00,64.1,53.0,30.04,ENE,76,0.0,2.0,67,0.00,,,0.00,0,weatherlink.com 1.10,2013-04-15 04:48:00,
2013-04-15 01:03:00,63.5,53.0,30.02,NE,53,1.0,2.0,69,0.00,,,0.00,0,weatherlink.com 1.10,2013-04-15 05:03:00,
2013-04-15 01:18:00,63.0,53.0,30.02,NE,44,0.0,4.0,70,0.00,,,0.00,0,weatherlink.com 1.10,2013-04-15 05:18:00,
2013-04-15 01:33:00,62.4,55.0,30.04,NNW,339,0.0,1.0,76,0.00,,,0.00,0,weatherlink.com 1.10,2013-04-15 05:33:00,
2013-04-15 01:48:00,61.5,56.0,30.05,NNW,339,0.0,0.0,81,0.01,,,0.01,0,weatherlink.com 1.10,2013-04-15 05:48:00,
2013-04-15 02:03:00,60.5,56.0,30.05,NNW,339,0.0,0.0,84,0.01,,,0.01,0,weatherlink.com 1.10,2013-04-15 06:03:00,
2013-04-15 02:18:00,59.9,56.0,30.05,East,83,0.0,1.0,88,0.01,,,0.01,0,weatherlink.com 1.10,2013-04-15 06:18:00,
2013-04-15 02:33:00,59.4,57.0,30.05,East,83,0.0,1.0,91,0.02,,,0.02,0,weatherlink.com 1.10,2013-04-15 06:33:00,
2013-04-15 02:48:00,59.0,57.0,30.05,East,83,0.0,0.0,92,0.01,,,0.02,0,weatherlink.com 1.10,2013-04-15 06:48:00,
2013-04-15 03:03:00,58.9,57.0,30.05,East,83,0.0,2.0,93,0.01,,,0.02,0,weatherlink.com 1.10,2013-04-15 07:03:00,
2013-04-15 03:48:00,58.9,57.0,30.02,NNE,14,0.0,2.0,92,0.01,,,0.03,0,weatherlink.com 1.10,2013-04-15 07:48:00,
2013-04-15 04:03:00,59.5,57.0,30.02,ENE,74,3.0,7.0,91,0.01,,,0.03,0,weatherlink.com 1.10,2013-04-15 08:03:00,
2013-04-15 04:18:00,60.3,56.0,30.04,SE,126,0.0,4.0,86,0.01,,,0.03,0,weatherlink.com 1.10,2013-04-15 08:18:00,
2013-04-15 04:33:00,60.6,56.0,30.04,ESE,113,0.0,3.0,86,0.00,,,0.03,0,weatherlink.com 1.10,2013-04-15 08:33:00,
2013-04-15 04:48:00,60.9,57.0,30.04,ENE,67,0.0,3.0,86,0.00,,,0.03,0,weatherlink.com 1.10,2013-04-15 08:48:00,
2013-04-15 05:03:00,61.0,57.0,30.03,North,11,2.0,5.0,86,0.00,,,0.03,0,weatherlink.com 1.10,2013-04-15 09:03:00,
2013-04-15 05:18:00,61.1,57.0,30.03,East,84,0.0,4.0,86,0.00,,,0.03,0,weatherlink.com 1.10,2013-04-15 09:18:00,
2013-04-15 05:33:00,61.3,57.0,30.04,NW,309,0.0,3.0,86,0.00,,,0.03,0,weatherlink.com 1.10,2013-04-15 09:33:00,
2013-04-15 05:48:00,61.1,57.0,30.05,ENE,74,0.0,2.0,87,0.00,,,0.03,0,weatherlink.com 1.10,2013-04-15 09:48:00,
2013-04-15 06:03:00,61.1,57.0,30.05,ENE,67,0.0,3.0,87,0.00,,,0.03,0,weatherlink.com 1.10,2013-04-15 10:03:00,
2013-04-15 06:18:00,61.2,57.0,30.05,North,11,3.0,6.0,86,0.00,,,0.03,0,weatherlink.com 1.10,2013-04-15 10:18:00,
2013-04-15 06:33:00,61.3,57.0,30.05,ENE,75,2.0,7.0,85,0.00,,,0.03,0,weatherlink.com 1.10,2013-04-15 10:33:00,
2013-04-15 06:48:00,61.1,57.0,30.05,NNE,24,0.0,2.0,86,0.00,,,0.03,0,weatherlink.com 1.10,2013-04-15 10:48:00,
2013-04-15 07:03:00,60.9,57.0,30.05,ENE,73,1.0,5.0,86,0.00,,,0.03,0,weatherlink.com 1.10,2013-04-15 11:03:00,
2013-04-15 07:18:00,60.9,56.0,30.06,NNE,31,2.0,4.0,84,0.00,,,0.03,5,weatherlink.com 1.10,2013-04-15 11:18:00,
2013-04-15 07:33:00,61.0,56.0,30.07,NNE,18,2.0,7.0,82,0.00,,,0.03,5,weatherlink.com 1.10,2013-04-15 11:33:00,
2013-04-15 07:49:00,61.0,55.0,30.07,East,98,2.0,9.0,80,0.00,,,0.03,23,weatherlink.com 1.10,2013-04-15 11:49:00,
2013-04-15 08:04:00,61.1,54.0,30.07,North,5,3.0,6.0,77,0.00,,,0.03,42,weatherlink.com 1.10,2013-04-15 12:04:00,
2013-04-15 08:19:00,61.4,53.0,30.06,NE,51,6.0,7.0,75,0.00,,,0.03,102,weatherlink.com 1.10,2013-04-15 12:19:00,
2013-04-15 08:34:00,62.9,53.0,30.07,SE,128,3.0,7.0,71,0.00,,,0.03,239,weatherlink.com 1.10,2013-04-15 12:34:00,
2013-04-15 08:49:00,63.3,54.0,30.07,ENE,78,4.0,11.0,71,0.00,,,0.03,109,weatherlink.com 1.10,2013-04-15 12:49:00,
2013-04-15 09:04:00,63.0,53.0,30.07,ENE,78,3.0,14.0,70,0.00,,,0.03,149,weatherlink.com 1.10,2013-04-15 13:04:00,
2013-04-15 09:19:00,63.3,54.0,30.07,East,93,3.0,11.0,72,0.00,,,0.03,236,weatherlink.com 1.10,2013-04-15 13:19:00,
2013-04-15 09:35:00,63.8,55.0,30.08,ENE,63,2.0,15.0,73,0.00,,,0.03,197,weatherlink.com 1.10,2013-04-15 13:35:00,
2013-04-15 09:49:00,63.8,55.0,30.08,NE,39,6.0,10.0,73,0.00,,,0.03,192,weatherlink.com 1.10,2013-04-15 13:49:00,
2013-04-15 10:04:00,63.8,55.0,30.09,East,101,4.0,13.0,72,0.00,,,0.03,190,weatherlink.com 1.10,2013-04-15 14:04:00,
2013-04-15 10:19:00,64.4,55.0,30.09,NE,50,6.0,9.0,71,0.00,,,0.03,178,weatherlink.com 1.10,2013-04-15 14:19:00,
2013-04-15 10:34:00,64.8,55.0,30.09,East,89,3.0,10.0,70,0.00,,,0.03,229,weatherlink.com 1.10,2013-04-15 14:34:00,
2013-04-15 10:49:00,65.2,54.0,30.09,NE,45,5.0,9.0,67,0.00,,,0.03,216,weatherlink.com 1.10,2013-04-15 14:49:00,
2013-04-15 11:04:00,65.7,54.0,30.09,ENE,78,5.0,15.0,66,0.00,,,0.03,406,weatherlink.com 1.10,2013-04-15 15:04:00,
2013-04-15 11:19:00,66.8,55.0,30.09,East,93,1.0,10.0,66,0.00,,,0.03,387,weatherlink.com 1.10,2013-04-15 15:19:00,
2013-04-15 11:34:00,67.1,54.0,30.09,NE,44,2.0,12.0,64,0.00,,,0.03,362,weatherlink.com 1.10,2013-04-15 15:34:00,
2013-04-15 11:49:00,67.2,54.0,30.10,SE,138,4.0,12.0,63,0.00,,,0.03,304,weatherlink.com 1.10,2013-04-15 15:49:00,
2013-04-15 12:04:00,66.8,54.0,30.10,ESE,113,2.0,13.0,64,0.00,,,0.03,183,weatherlink.com 1.10,2013-04-15 16:04:00,
2013-04-15 12:19:00,66.5,54.0,30.10,South,179,3.0,11.0,65,0.00,,,0.03,155,weatherlink.com 1.10,2013-04-15 16:19:00,
2013-04-15 12:34:00,67.1,54.0,30.10,ESE,120,3.0,10.0,64,0.00,,,0.03,318,weatherlink.com 1.10,2013-04-15 16:34:00,
2013-04-15 12:49:00,67.5,55.0,30.10,NE,45,2.0,9.0,64,0.00,,,0.03,404,weatherlink.com 1.10,2013-04-15 16:49:00,
2013-04-15 13:04:00,67.7,55.0,30.11,NE,51,4.0,10.0,64,0.00,,,0.03,246,weatherlink.com 1.10,2013-04-15 17:04:00,
2013-04-15 13:19:00,67.8,56.0,30.11,ENE,75,3.0,8.0,65,0.00,,,0.03,299,weatherlink.com 1.10,2013-04-15 17:19:00,
2013-04-15 13:34:00,67.8,56.0,30.11,ENE,58,5.0,10.0,66,0.00,,,0.03,346,weatherlink.com 1.10,2013-04-15 17:34:00,
2013-04-15 13:49:00,68.1,55.0,30.11,NE,41,4.0,10.0,64,0.00,,,0.03,279,weatherlink.com 1.10,2013-04-15 17:49:00,
2013-04-15 14:04:00,68.0,56.0,30.11,ENE,76,5.0,9.0,65,0.00,,,0.03,229,weatherlink.com 1.10,2013-04-15 18:04:00,
2013-04-15 14:19:00,67.9,56.0,30.12,ESE,121,2.0,9.0,65,0.00,,,0.03,186,weatherlink.com 1.10,2013-04-15 18:19:00,
2013-04-15 14:34:00,68.5,57.0,30.12,South,187,1.0,9.0,66,0.00,,,0.03,485,weatherlink.com 1.10,2013-04-15 18:34:00,
2013-04-15 14:49:00,69.5,57.0,30.12,North,5,2.0,5.0,64,0.00,,,0.03,323,weatherlink.com 1.10,2013-04-15 18:49:00,
2013-04-15 15:04:00,69.6,56.0,30.12,ENE,71,1.0,7.0,63,0.00,,,0.03,225,weatherlink.com 1.10,2013-04-15 19:04:00,
2013-04-15 15:19:00,69.5,56.0,30.12,East,94,1.0,5.0,63,0.00,,,0.03,162,weatherlink.com 1.10,2013-04-15 19:19:00,
2013-04-15 15:49:00,69.4,56.0,30.11,SSE,167,0.0,4.0,63,0.00,,,0.03,167,weatherlink.com 1.10,2013-04-15 19:49:00,
2013-04-15 16:04:00,69.5,56.0,30.11,SE,139,1.0,4.0,63,0.00,,,0.03,193,weatherlink.com 1.10,2013-04-15 20:04:00,
2013-04-15 16:20:00,69.9,56.0,30.11,East,80,0.0,2.0,62,0.00,,,0.03,185,weatherlink.com 1.10,2013-04-15 20:20:00,
2013-04-15 16:35:00,70.1,56.0,30.10,East,98,0.0,2.0,62,0.00,,,0.03,158,weatherlink.com 1.10,2013-04-15 20:35:00,
2013-04-15 16:50:00,70.3,57.0,30.11,SSE,151,0.0,2.0,64,0.00,,,0.03,292,weatherlink.com 1.10,2013-04-15 20:50:00,
2013-04-15 17:05:00,70.6,56.0,30.11,SSE,167,1.0,5.0,61,0.00,,,0.03,192,weatherlink.com 1.10,2013-04-15 21:05:00,
2013-04-15 17:20:00,70.4,56.0,30.11,SSE,163,0.0,3.0,61,0.00,,,0.03,123,weatherlink.com 1.10,2013-04-15 21:20:00,
2013-04-15 17:35:00,70.1,56.0,30.11,SE,139,0.0,3.0,62,0.00,,,0.03,63,weatherlink.com 1.10,2013-04-15 21:35:00,
2013-04-15 17:50:00,69.7,56.0,30.12,East,84,0.0,1.0,62,0.00,,,0.03,51,weatherlink.com 1.10,2013-04-15 21:50:00,
2013-04-15 18:05:00,69.4,57.0,30.12,East,86,0.0,2.0,66,0.00,,,0.03,42,weatherlink.com 1.10,2013-04-15 22:05:00,
2013-04-15 18:20:00,69.1,58.0,30.12,East,86,0.0,0.0,67,0.00,,,0.03,46,weatherlink.com 1.10,2013-04-15 22:20:00,
2013-04-15 18:35:00,69.0,58.0,30.13,East,86,0.0,0.0,68,0.00,,,0.03,35,weatherlink.com 1.10,2013-04-15 22:35:00,
2013-04-15 18:50:00,68.7,58.0,30.13,East,86,0.0,0.0,68,0.00,,,0.03,25,weatherlink.com 1.10,2013-04-15 22:50:00,
2013-04-15 19:05:00,68.2,58.0,30.13,East,86,0.0,0.0,71,0.00,,,0.03,19,weatherlink.com 1.10,2013-04-15 23:05:00,
2013-04-15 19:20:00,67.7,59.0,30.14,East,86,0.0,0.0,73,0.00,,,0.03,11,weatherlink.com 1.10,2013-04-15 23:20:00,
2013-04-15 19:35:00,67.1,58.0,30.14,East,86,0.0,0.0,73,0.00,,,0.03,0,weatherlink.com 1.10,2013-04-15 23:35:00,
2013-04-15 19:50:00,66.5,59.0,30.14,East,86,0.0,0.0,76,0.00,,,0.03,0,weatherlink.com 1.10,2013-04-15 23:50:00,
2013-04-15 20:05:00,65.8,58.0,30.14,East,86,0.0,0.0,77,0.00,,,0.03,0,weatherlink.com 1.10,2013-04-16 00:05:00,
2013-04-15 20:20:00,65.4,58.0,30.15,East,86,0.0,0.0,78,0.00,,,0.03,0,weatherlink.com 1.10,2013-04-16 00:20:00,
2013-04-15 20:35:00,65.1,59.0,30.16,East,86,0.0,0.0,81,0.00,,,0.03,0,weatherlink.com 1.10,2013-04-16 00:35:00,
2013-04-15 20:50:00,64.8,60.0,30.16,East,86,0.0,0.0,83,0.00,,,0.03,0,weatherlink.com 1.10,2013-04-16 00:50:00,
2013-04-15 21:05:00,64.5,59.0,30.17,East,98,0.0,0.0,83,0.00,,,0.03,0,weatherlink.com 1.10,2013-04-16 01:05:00,
2013-04-15 21:20:00,64.2,59.0,30.18,East,98,0.0,0.0,84,0.00,,,0.03,0,weatherlink.com 1.10,2013-04-16 01:20:00,
2013-04-15 21:35:00,64.2,59.0,30.19,ENE,61,0.0,2.0,82,0.00,,,0.03,0,weatherlink.com 1.10,2013-04-16 01:35:00,
2013-04-15 21:50:00,65.2,58.0,30.20,ENE,77,0.0,3.0,78,0.00,,,0.03,0,weatherlink.com 1.10,2013-04-16 01:50:00,
2013-04-15 22:05:00,65.8,58.0,30.20,NE,50,1.0,5.0,76,0.00,,,0.03,0,weatherlink.com 1.10,2013-04-16 02:05:00,
2013-04-15 22:20:00,65.8,58.0,30.21,East,100,2.0,2.0,76,0.00,,,0.03,0,weatherlink.com 1.10,2013-04-16 02:20:00,
2013-04-15 22:35:00,65.8,58.0,30.21,East,94,1.0,4.0,77,0.00,,,0.03,0,weatherlink.com 1.10,2013-04-16 02:35:00,
2013-04-15 22:50:00,65.6,58.0,30.21,ENE,61,2.0,5.0,77,0.00,,,0.03,0,weatherlink.com 1.10,2013-04-16 02:50:00,
2013-04-15 23:05:00,65.4,58.0,30.21,East,84,3.0,8.0,77,0.00,,,0.03,0,weatherlink.com 1.10,2013-04-16 03:05:00,
2013-04-15 23:20:00,65.1,58.0,30.21,NNE,26,3.0,4.0,78,0.00,,,0.03,0,weatherlink.com 1.10,2013-04-16 03:20:00,
2013-04-15 23:35:00,64.9,58.0,30.21,NNE,28,2.0,6.0,79,0.00,,,0.03,0,weatherlink.com 1.10,2013-04-16 03:35:00,
2013-04-15 23:50:00,64.6,59.0,30.21,NE,51,0.0,5.0,81,0.00,,,0.03,0,weatherlink.com 1.10,2013-04-16 03:50:00,